Terminal Aerodrome Forecast
Issued by NWS Cheyenne, WY

Home | Current Version | Previous Version | Text Only | Print | Product List | Glossary On
Versions: 1 2 3 4 5 6 7 8 9 10 11 12 13 14 15 16 17 18 19 20 21 22 23 24 25 26 27
000
FTUS45 KCYS 030520
TAFCYS
TAF
KCYS 030520Z 0306/0406 29010KT P6SM SCT150
     FM031800 05012G18KT P6SM VCTS BKN070CB
     FM040200 10007KT P6SM SCT050
     FM040400 13005KT P6SM BKN020=

USA.gov is the U.S. government's official web portal to all federal, state and local government web resources and services.